COSMOS 2251 DEB, 33798

Orbit data source: Space-Track

COSMOS 2251 DEB, 33798 is space debris in LEO originally from a launch on Wed, 16 Jun 1993 UTC launched from the Plesetsk Missile And Space Complex (PKMTR). The debris from Iridium 33, an American commercial communications satellite, has been tracked extensively since its accidental collision with the defunct Russian satellite Cosmos 2251 in 2009. This event, occurring at high speed in low Earth orbit (LEO), generated thousands of pieces of space debris, significantly increasing the risk of further collisions. The Iridium 33 debris cloud has impacted space traffic management and orbital debris mitigation strategies, making it a subject of ongoing study in space situational awareness.

Loading next visibility...
Identifier
33798, 1993-036AP
Orbit
LEO
Country
Flag of CISCIS
Related business
Manufacturer
Unknown
Mission
Spacecraft
Bus & Motor
Unknown
Mass
Unknown
Launch date (UTC)
1993-06-16 (33 years ago)
Launch vehicle
Unknown
Launch site
Plesetsk Missile And Space Complex (PKMTR)
Object type
Payload
Rocket body
Debris
Shape & HBR
Unknown shape, 0.1 m
Radar Cross Section
Small (<0.1 m²)

Expand to show TLE details & history
Last TLE update: 9 hours ago

TLE from 9 hours ago
0 COSMOS 2251 DEB
1 33798U 93036AP  26038.06900669  .00000561  00000-0  16158-3 0  9992
2 33798  74.0291  30.9746 0090412 139.0961 291.7115 14.44698859894071
Epoch: 2026-02-07T01:39Z
TLE epoch observation values (Epoch: 2026-02-07T01:39:22.178Z)
Latitude
64.58967°
Longitude
-94.25176°
Altitude
730.48 km
Speed
7.508 km/s
True Right ascension
04h 31m 09s
True Declination
64° 27' 20"
Sunlit
Object was in daylight at epoch
Visualization orbit readout
Latitude
Unknown
Longitude
Unknown
Altitude
Unknown
Speed
Unknown
Apparent Right ascension
Unknown
Apparent Declination
Unknown
Sunlit
N/A
Visualization observer readout
Local Sidereal Time
12:20:01
Azimuth
Unknown
Elevation
Unknown
Doppler factor
Unknown
Orbital elements
Apogee altitude
804.992 km
Perigee altitude
676.268 km
Semi-major axis
7,118.767 km
Eccentricity
0.00904
Inclination
74.0291°
RAAN
30.9746°
Arg. of periapsis
139.0961°
True anomaly
290.74496°
Mean anomaly
291.7115°
Eccentric anomaly
291.22863°
Mean motion
3.61357 °/min
Orbital period
99.62 mins
BSTAR
0.00016158
Loading maneuver chart data...
Computing Atmospheric mass density...

Documentation

Showing up to 5 results
|